#timestamp,LO_Frequency,Hit,StdDev 
1627354815.4,286047000.8,N
1627354835.2,286046998.3,N
1627354855.1,286046998.2,N
1627354856.0,286046998.2,N
1627354875.8,286046999.8,N
1627354895.7,286047000.1,N
1627354915.5,286047002.4,N
1627354935.3,286047000.3,N
1627354955.2,286047002.5,N
1627354975.0,286047001.9,N
1627354975.9,286047001.9,N
1627354995.7,286047002.5,N
1627355015.6,286047000.2,N
1627355035.4,286047000.1,N
1627355055.3,286047002.5,N
1627355075.1,286047002.5,N
1627355095.8,286047001.8,N
1627355115.7,286047001.8,N
1627355135.5,286047003.6,N
1627355155.4,286047003.1,N
1627355175.2,286047005.7,Y
1627355195.0,286047003.3,P
1627355195.9,286047003.3,N
1627355215.8,286047003.6,P
1627355235.6,286047003.7,Y
1627355255.5,286047000.8,P
1627355275.3,286046998.9,N
1627355295.1,286046996.5,N
1627355315.9,286046997.4,N
1627355335.7,286046999.2,N
1627355355.5,286046996.6,N
1627355375.4,286046999.1,N
1627355395.2,286046998.6,N
1627355415.0,286046998.6,N
1627355416.0,286046998.6,N
1627355435.8,286046996.6,N
1627355455.6,286046997.8,N
1627355475.5,286046996.6,N
1627355495.3,286046997.2,N
1627355515.1,286046998.0,N
1627355535.9,286046995.0,Y
1627355555.7,286046998.7,P
1627355575.6,286046998.8,P
1627355595.4,286046998.2,P
1627355615.2,286046996.6,Y
1627355635.1,286046998.1,P
1627355636.0,286046998.1,P
1627355655.8,286047000.8,P
1627355675.6,286046998.2,N
1627355695.5,286046998.4,N
1627355715.3,286047000.8,N
1627355735.2,286046998.2,N
1627355755.9,286047000.2,N
1627355775.7,286047002.3,N
1627355795.6,286047002.4,N
1627355815.4,286047002.4,N
1627355835.2,286047002.7,N
1627355855.1,286047001.2,N
1627355856.0,286047001.2,N
1627355875.8,286047000.8,N
1627355895.7,286046998.2,N
1627355915.5,286047000.3,N
1627355935.3,286047000.8,N
1627355955.2,286047000.9,N
1627355975.0,286047000.5,N
1627355975.9,286047000.5,N
1627355995.7,286047000.1,N
1627356015.6,286047000.8,N
1627356035.4,286047001.1,N
1627356055.3,286047000.9,N
1627356075.1,286047000.0,N
1627356076.0,286047000.0,N
1627356095.8,286047000.5,N
1627356115.7,286047000.7,N
1627356135.5,286046998.5,N
1627356155.3,286046999.0,N
1627356175.2,286046998.2,N
1627356195.0,286047000.7,N
1627356195.9,286047000.7,N
1627356215.8,286047000.8,N
1627356235.6,286046998.4,N
1627356255.4,286047000.0,N
1627356275.3,286047000.6,N
1627356295.1,286047000.6,N
1627356315.8,286047001.1,N
1627356335.7,286047001.1,N
1627356355.5,286046998.6,N
1627356375.4,286046999.5,N
1627356395.2,286046998.8,N
1627356415.0,286046998.9,N
1627356415.9,286046998.9,N
1627356435.8,286047000.6,N
1627356455.6,286046998.2,N
1627356475.4,286046998.6,N
1627356495.3,286046998.3,N
1627356515.1,286046998.1,N
1627356535.9,286047000.5,N
1627356555.7,286047001.0,N
1627356575.5,286047000.3,N
1627356595.4,286046999.8,N
1627356615.2,286046999.9,N
1627356635.1,286046999.7,N
1627356636.0,286046999.7,N
1627356655.8,286047000.6,N
1627356675.6,286047000.2,N
1627356695.5,286047002.3,N
1627356715.3,286047002.1,N
1627356735.1,286047002.6,N
1627356755.9,286047002.6,N
1627356775.7,286047002.7,N
1627356795.6,286046999.8,N
1627356815.4,286046999.9,N
1627356835.2,286047000.2,N
1627356855.1,286047000.8,N
1627356856.0,286047000.8,N
1627356875.8,286047000.1,N
1627356895.6,286046999.9,N
1627356915.5,286047000.1,N
1627356935.3,286047000.2,N
1627356955.2,286047002.8,N
1627356975.9,286047001.0,N
1627356995.7,286046998.1,N
1627357015.6,286047001.2,N
1627357035.4,286047000.7,N
1627357055.2,286047001.1,N
1627357075.1,286047002.5,N
1627357076.0,286047002.5,N
1627357095.8,286047001.8,N
1627357115.7,286047002.0,N
1627357135.5,286047002.3,N
1627357155.3,286047000.5,N
1627357175.2,286047000.5,N
1627357195.0,286047000.9,N
1627357195.9,286047000.9,N
1627357215.7,286046998.3,N
1627357235.6,286046998.3,N
1627357255.4,286046998.1,N
1627357275.3,286047001.1,N
1627357295.1,286047001.2,N
1627357296.0,286047001.2,N
1627357315.8,286047001.0,N
1627357335.7,286046998.5,N
1627357355.5,286046998.1,N
1627357375.3,286046998.2,N
1627357395.2,286047001.1,N
1627357415.0,286046998.6,N
1627357415.9,286046998.6,N
1627357435.8,286046998.6,N
1627357455.6,286046998.4,N
1627357475.4,286046998.4,N
1627357495.3,286046999.3,N
1627357515.1,286046998.8,N
1627357535.8,286047000.8,N
1627357555.7,286046998.4,N
1627357575.5,286047001.1,N
1627357595.4,286046998.7,N
1627357615.2,286046998.8,N
1627357635.0,286047001.1,N
1627357635.9,286047001.1,N
1627357655.8,286046998.5,N
1627357675.6,286047001.1,N
1627357695.5,286046998.8,N
1627357715.3,286046998.3,N
1627357735.1,286047000.7,N
1627357755.9,286046998.3,N
1627357775.7,286047001.1,N
1627357795.5,286047001.1,N
1627357815.4,286046998.3,N
1627357835.2,286046999.4,N
1627357855.1,286046998.9,N
1627357856.0,286046998.9,N
1627357875.8,286046996.7,N
1627357895.6,286046998.9,N
1627357915.5,286046999.1,N
1627357935.3,286047001.1,N
1627357955.1,286047002.7,N
1627357975.9,286046999.8,N
1627357995.7,286047002.0,N
1627358015.6,286047001.8,N
1627358035.4,286047004.2,N
1627358055.2,286047004.4,N
1627358075.1,286047002.7,N
1627358076.0,286047002.7,N
1627358095.8,286047000.1,N
1627358115.6,286047002.7,N
1627358135.5,286047002.5,N
1627358155.3,286047001.7,N
1627358175.2,286047003.4,N
1627358195.9,286047001.7,N
1627358215.7,286047004.0,N
1627358235.6,286047001.7,N
1627358255.4,286047004.4,N
1627358275.2,286047004.4,N
1627358295.1,286047001.4,N
1627358296.0,286047001.4,N
1627358315.8,286047003.8,N
1627358335.7,286047001.3,N
1627358355.5,286047004.3,N
1627358375.3,286047001.3,N
1627358395.2,286047001.6,N
